Regional Weather Roundup
Issued by NWS

Home | Current Version | Previous Version | Text Only | Print | Product List | Glossary Off
Versions: 1 2 3 4 5 6 7 8 9 10 11 12 13 14 15 16 17 18 19 20 21 22 23 24 25 26 27 28 29 30 31 32 33 34 35 36 37 38 39 40 41 42 43 44 45 46 47 48 49 50

000
ASUS43 KOAX 270302
RWRNE

WEATHER ROUNDUP FOR NEBRASKA
NATIONAL WEATHER SERVICE OMAHA NE
1000 PM CDT THU MAY 26 2016

NOTES: SATELLITE DATA IS BEING USED TO AUGMENT CLOUD COVER ABOVE
       12000 FEET.
       "FAIR" INDICATES FEW OR NO CLOUDS BELOW 12,000 FEET WITH NO
       SIGNIFICANT WEATHER AND/OR OBSTRUCTIONS TO VISIBILITY.

  * THESE STATIONS DO NOT REPORT WEATHER SUCH AS RAIN...SNOW OR FOG.

NEZ001>004-019>022-054>056-270400-
NEBRASKA PANHANDLE

CITY           SKY/WX    TMP DP  RH WIND       PRES   REMARKS
SCOTTSBLUFF    CLOUDY    56  45  66 NW6       29.85R
ALLIANCE       CLOUDY    56  44  64 W7        29.83R
CHADRON        CLEAR     52  45  77 W5        29.82R
SIDNEY         CLOUDY    56  44  64 NW13      29.83S
$$

NEZ057>060-069>072-079>082-270400-
SOUTHWEST NEBRASKA

CITY           SKY/WX    TMP DP  RH WIND       PRES   REMARKS
NORTH PLATTE   TSTM      58  54  86 S8        29.80R
IMPERIAL       RAIN      54  51  90 E9G23     29.81R FOG
LEXINGTON      CLOUDY    64  57  78 E18       29.72R
MCCOOK         TSTM      55  51  86 W20G35    29.77R FOG
$$

NEZ005>010-023>029-035>040-094-270400-
NORTH CENTRAL NEBRASKA

CITY           SKY/WX    TMP DP  RH WIND       PRES   REMARKS
VALENTINE      CLOUDY    62  52  69 N18G29    29.81R
AINSWORTH      CLOUDY    66  58  75 E13       29.78S
BROKEN BOW     CLOUDY    66  56  70 E8        29.75S
ORD            CLOUDY    63  57  81 E8        29.73F
$$

NEZ041-046>049-061>064-073>077-083>087-270400-
SOUTH CENTRAL NEBRASKA

CITY           SKY/WX    TMP DP  RH WIND       PRES   REMARKS
GRAND ISLAND   CLOUDY    61  57  87 SE12      29.79R
HASTINGS       TSTM      60  57  89 SE20G29   29.84R FOG
KEARNEY *      CLOUDY    61  55  82 SE26G32   29.77R
YORK           CLOUDY    61  57  88 SE22G29   29.75R
$$

NEZ011>018-030>034-042>045-270400-
NORTHEAST NEBRASKA

CITY           SKY/WX    TMP DP  RH WIND       PRES   REMARKS
NORFOLK        CLOUDY    62  58  86 E9        29.77R
ALBION         CLOUDY    59  55  87 CALM      29.77R
BLAIR          CLOUDY    62  56  81 SE24G32   29.71F
FREMONT        CLOUDY    62  57  86 SE7G18    29.73R
TEKAMAH        CLOUDY    64  54  69 E30G45    29.66F
$$

NEZ050>053-065>068-078-088>093-270400-
SOUTHEAST NEBRASKA

CITY           SKY/WX    TMP DP  RH WIND       PRES   REMARKS
LINCOLN        CLOUDY    63  57  81 SE21G32   29.79R
OMAHA EPPLEY   CLOUDY    64  56  75 SE24G33   29.76F
FALLS CITY     RAIN      63  63 100 E18G31    29.87F
PLATTSMOUTH    CLOUDY    64  59  84 E25G33    29.77F
$$

NEZ044-045-051>053-067-270400-
OMAHA AREA

CITY           SKY/WX    TMP DP  RH WIND       PRES   REMARKS
OMAHA EPPLEY   CLOUDY    64  56  75 SE24G33   29.76F
BLAIR          CLOUDY    62  56  81 SE24G32   29.71F
FREMONT        CLOUDY    62  57  86 SE7G18    29.73R
OFFUTT AFB     CLOUDY    63  57  79 E20G29    29.77F
PLATTSMOUTH    CLOUDY    64  59  84 E25G33    29.77F
$$




USA.gov is the U.S. government's official web portal to all federal, state and local government web resources and services.